Weather observations for the past three days for
Beatrice Municipal
Imperial (Metric)
Date Time (cdt) Wind (mph) Vis. (mi.) Weather Sky Cond. Temperature (ºF) Relative Humidity Wind Chill (°F) Heat Index (°F) Pressure Precipitation (in)
Air Dwpt 6 hour altimeter (in) sea level (mb) 1 hr 3 hr 6 hr
Max. Min.
15 02:15 SE 12 G 16 10.00 Mostly Cloudy BKN110 76.1 63 64% 78 29.95 0.0
15 01:55 SE 10 10.00 Partly Cloudy SCT070 SCT120 76.1 63.5 65% 78 29.96 0.0
15 01:35 SE 9 10.00 Mostly Cloudy SCT070 SCT080 BKN120 76.5 63.1 64% 78 29.97 0.0
15 01:15 SE 10 10.00 Partly Cloudy SCT070 77 63 62% 79 29.97 0.0
15 00:55 SE 10 10.00 Fair CLR 77 62.6 86.5 76.3 61% 79 29.95 0.0
15 00:35 SE 9 10.00 Partly Cloudy SCT043 77.2 62.6 61% 79 29.96 0.0
15 00:15 SE 10 10.00 Overcast OVC043 77.7 62.2 59% 79 29.98 0.0
14 23:55 SE 8 10.00 Mostly Cloudy BKN043 77 62.2 60% 79 29.99 0.0
14 23:35 SE 8 10.00 Mostly Cloudy BKN043 77 62.2 60% 79 29.99 0.0
14 23:15 SE 7 10.00 Fair CLR 76.3 62.4 62% 78 29.97 0.0
14 22:55 SE 6 10.00 Fair CLR 76.5 62.4 62% 78 29.97 0.0
14 22:35 SE 5 10.00 Fair CLR 77 62.2 60% 79 29.98 0.0
14 22:15 SE 3 10.00 Fair CLR 77.7 61.7 58% 79 29.97 0.0
14 21:55 E 7 10.00 Fair CLR 78.3 61.7 57% 80 29.95 0.0
14 21:35 SE 8 10.00 Fair CLR 80.2 61 52% 81 29.96 0.0
14 21:15 SE 7 10.00 Fair CLR 81 61.2 51% 82 29.97 0.0
14 20:55 SE 8 10.00 Fair CLR 81.9 61 49% 83 29.97 0.0
14 20:35 SE 8 10.00 Fair CLR 82.8 61 48% 83 29.97 0.0
14 20:15 SE 8 10.00 Fair CLR 83.3 61.7 48% 84 29.97 0.0
14 19:55 SE 9 G 16 10.00 Fair CLR 84.6 61.9 47% 85 29.97 0.0
14 19:35 SE 10 10.00 Fair CLR 85.3 61.7 45% 86 29.98 0.0
14 19:15 SE 9 10.00 Fair CLR 86.4 61.7 44% 87 29.98 0.0
14 18:55 SE 13 G 17 10.00 Fair CLR 86.4 61.3 89.8 86.4 43% 87 29.98 0.0
14 18:35 SE 9 G 16 10.00 Fair CLR 86.9 61.7 43% 87 29.98 0.0
14 18:15 SE 8 10.00 Fair CLR 87.8 60.8 40% 88 29.97 0.0
14 17:55 SE 13 G 17 10.00 Fair CLR 88.5 60.4 39% 88 29.98 0.0
14 17:35 SE 14 G 18 10.00 Fair CLR 89.6 60.8 38% 90 29.98 0.0
14 17:15 SE 10 10.00 Fair CLR 89.6 60.6 38% 89 29.98 0.0
14 16:55 SE 10 10.00 Fair CLR 89.6 59 36% 89 29.99 0.0
14 16:35 E 13 G 18 10.00 Fair CLR 89.4 58.8 36% 89 30 0.0
14 16:15 E 14 10.00 Fair CLR 88.9 59.4 37% 88 30 0.0
14 15:55 E 9 G 20 10.00 Fair CLR 88.7 58.6 36% 88 30.01 0.0
14 15:35 E 12 10.00 Fair CLR 88.9 58.1 35% 88 30.01 0.0
14 15:15 E 14 G 20 10.00 Fair CLR 89.1 59 36% 88 30.02 0.0
14 14:55 SE 12 G 17 10.00 Fair CLR 88.2 59.4 38% 88 30.03 0.0
14 14:35 SE 15 10.00 Fair CLR 88.5 59.9 38% 88 30.04 0.0
14 14:15 SE 16 G 23 10.00 Fair CLR 88.5 59.2 37% 88 30.04 0.0
14 13:55 SE 13 G 18 10.00 Fair CLR 87.8 57.6 36% 87 30.05 0.0
14 13:35 E 13 G 22 10.00 Fair CLR 87.3 56.1 35% 86 30.06 0.0
14 13:15 SE 15 10.00 Fair CLR 87.8 56.3 34% 86 30.06 0.0
14 12:55 E 14 G 18 10.00 Fair CLR 86.5 54.7 86.7 69.8 34% 85 30.07 0.0
14 12:35 E 12 G 18 10.00 Fair CLR 86 54 33% 84 30.07 0.0
14 12:15 SE 12 G 21 10.00 Fair CLR 86.4 54.5 34% 85 30.07 0.0
14 11:55 E 14 G 18 10.00 Fair CLR 85.1 53.2 34% 83 30.07 0.0
14 11:35 E 13 G 18 10.00 Fair CLR 84.7 54 35% 83 30.08 0.0
14 11:15 E 14 G 21 10.00 Fair CLR 84.4 53.8 35% 83 30.08 0.0
14 10:55 E 14 G 22 10.00 Fair CLR 84 53.4 35% 83 30.08 0.0
14 10:35 SE 14 G 22 10.00 Fair CLR 83.3 53.4 36% 82 30.08 0.0
14 10:15 E 17 10.00 Fair CLR 82.4 53.4 37% 81 30.08 0.0
14 09:55 E 12 10.00 Fair CLR 82 53.2 37% 81 30.08 0.0
14 09:35 E 14 G 21 10.00 Fair CLR 81.1 51.6 36% 80 30.08 0.0
14 09:15 E 14 G 18 10.00 Fair CLR 79.9 52.9 39% 80 30.09 0.0
14 08:55 E 13 G 18 10.00 Fair CLR 78.4 52.9 41% 79 30.09 0.0
14 08:35 E 13 G 18 10.00 Fair CLR 77.2 54.1 45% 79 30.08 0.0
14 08:15 E 7 10.00 Fair CLR 75 55.8 51% 78 30.08 0.0
14 07:55 NE 6 10.00 Fair CLR 73 57.2 58% 30.09 0.0
14 07:35 E 7 10.00 Fair CLR 71.8 56.7 59% 30.08 0.0
14 07:15 E 6 10.00 Partly Cloudy SCT070 70.3 56.3 61% 30.07 0.0
14 06:55 E 3 10.00 Mostly Cloudy BKN070 70 55.4 79 66.7 60% 30.06 0.0
14 06:35 NE 6 10.00 Fair CLR 68.2 54.9 63% 30.05 0.0
14 06:15 NE 8 10.00 Partly Cloudy SCT070 67.1 54.9 65% 30.04 0.0
14 05:55 NE 7 10.00 Mostly Cloudy BKN070 67.1 54.7 65% 30.03 0.0
14 05:35 NE 7 10.00 Partly Cloudy SCT070 66.9 55 66% 30.03 0.0
14 05:15 NE 6 10.00 Fair CLR 67.5 55.6 66% 30.03 0.0
14 04:55 NE 7 10.00 Fair CLR 68.5 55.8 64% 30.03 0.0
14 04:35 NE 8 10.00 Fair CLR 70.9 55.4 58% 30.02 0.0
14 04:15 N 7 10.00 Fair CLR 71.2 55.6 58% 30.02 0.0
14 03:55 NE 8 10.00 Fair CLR 72.1 55.6 56% 30.02 0.0
14 03:35 NE 7 10.00 Fair CLR 74.3 55.4 52% 30.02 0.0
14 03:15 NE 8 10.00 Partly Cloudy SCT080 74.5 55.8 52% 30 0.0
14 02:55 NE 13 G 17 10.00 Overcast SCT070 OVC080 75.2 57 53% 78 29.99 0.0
14 02:35 NE 6 10.00 Overcast OVC070 76.1 56.8 51% 78 30.01 0.0
14 02:15 NE 7 10.00 Overcast OVC065 77 56.3 49% 79 30.01 0.0
14 01:55 NE 6 10.00 Overcast OVC065 76.5 56.7 50% 78 30.01 0.0
14 01:35 NE 9 10.00 Overcast OVC065 75.9 57.4 53% 78 30 0.0
14 01:15 E 3 10.00 Overcast OVC065 78.8 55.9 45% 80 29.99 0.0
14 00:55 E 7 10.00 Overcast BKN050 OVC065 79 56.3 88.7 77.4 46% 80 29.98 0.0
14 00:35 E 6 10.00 Overcast SCT050 OVC065 78.8 56.5 46% 80 29.99 0.0
14 00:15 E 7 10.00 Overcast OVC055 78.1 57.2 49% 79 29.99 0.0
13 23:55 NE 6 10.00 Overcast OVC055 78.1 57.2 49% 79 30 0.0
13 23:35 E 3 10.00 Overcast OVC055 78.1 57.4 49% 79 30 0.0
13 23:15 NE 6 10.00 Overcast OVC065 77.9 57.2 49% 79 29.98 0.0
13 22:55 NE 7 10.00 Mostly Cloudy BKN065 77.7 57.4 50% 79 29.97 0.0
13 22:35 NE 7 10.00 Mostly Cloudy BKN065 78.8 57.2 48% 80 29.96 0.0
13 22:15 NE 7 10.00 Partly Cloudy SCT065 78.8 57.2 48% 80 29.95 0.0
13 21:55 NE 8 10.00 Fair CLR 78.8 57.2 48% 80 29.93 0.0
13 21:35 NE 12 G 16 10.00 Fair CLR 79.9 56.5 45% 80 29.91 0.0
13 21:15 NE 9 10.00 Fair CLR 80.8 56.5 43% 81 29.9 0.0
13 20:55 NE 9 10.00 Fair CLR 81.7 57.6 44% 82 29.89 0.0
13 20:35 NE 10 10.00 Fair CLR 82.9 58.3 43% 83 29.88 0.0
13 20:15 NE 14 G 20 10.00 Fair CLR 84.4 58.3 41% 84 29.88 0.0
13 19:55 NE 15 G 22 10.00 Fair CLR 85.3 59.4 42% 85 29.87 0.0
13 19:35 NE 14 G 22 10.00 Fair CLR 86.4 61.2 43% 87 29.85 0.0
13 19:15 NE 17 G 22 10.00 Fair CLR 87.8 61.7 42% 88 29.84 0.0
13 18:55 NE 15 G 22 10.00 Fair CLR 88.7 64.2 95 88.7 44% 90 29.84 0.0
13 18:35 NE 16 G 28 10.00 Fair CLR 89.1 63.5 43% 90 29.83 0.0
13 18:15 NE 16 G 28 10.00 Fair CLR 90 64 42% 91 29.85 0.0
13 17:55 NE 21 G 25 10.00 Fair and Breezy CLR 91 67.3 46% 95 29.85 0.0
13 17:35 NE 15 G 22 10.00 Fair CLR 91.9 67.8 45% 96 29.85 0.0
13 17:15 N 14 G 20 10.00 Fair CLR 92.8 69.6 47% 99 29.85 0.0
13 16:55 NE 12 G 23 10.00 Fair CLR 93 71.4 49% 100 29.85 0.0
13 16:35 NE 15 10.00 Partly Cloudy SCT055 93.7 71.6 49% 101 29.84 0.0
13 16:15 NE 10 10.00 Mostly Cloudy BKN055 93.7 71.6 49% 101 29.84 0.0
13 15:55 E 3 10.00 Partly Cloudy SCT055 94.6 70.2 45% 101 29.83 0.0
13 15:35 N 3 10.00 Fair CLR 93.7 70.7 47% 101 29.83 0.0
13 15:15 NE 9 10.00 Partly Cloudy SCT050 93.6 71.2 48% 101 29.83 0.0
13 14:55 N 7 3.00 Partly Cloudy with Haze SCT050 94.1 71.4 48% 102 29.83 0.0
13 14:35 N 6 10.00 Partly Cloudy SCT050 92.5 71.2 50% 100 29.83 0.0
13 14:15 N 3 10.00 Partly Cloudy SCT050 93.4 71.8 50% 101 29.83 0.0
13 13:55 NE 6 10.00 Fair CLR 92.3 71.2 50% 99 29.82 0.0
13 13:35 E 3 10.00 Partly Cloudy SCT045 92.3 71.2 50% 99 29.81 0.0
13 13:15 NE 3 10.00 Mostly Cloudy BKN045 91.4 71.1 51% 98 29.82 0.0
13 12:55 NW 3 10.00 Partly Cloudy SCT045 90.3 70.9 91.4 72.5 53% 97 29.82 0.0
13 12:35 N 3 10.00 Fair CLR 90.7 71.6 54% 98 29.82 0.0
13 12:15 Calm 10.00 Fair CLR 89.6 72 56% 97 29.82 0.0
13 11:55 W 3 10.00 Fair CLR 88.9 71.1 56% 95 29.82 0.0
13 11:35 W 5 10.00 Fair CLR 88.5 71.6 57% 95 29.81 0.0
13 11:15 SW 9 10.00 Fair CLR 87.1 71.4 60% 93 29.78 0.0
13 10:55 SW 9 10.00 Fair CLR 86.2 70.7 60% 91 29.78 0.0
13 10:35 SW 9 10.00 Fair CLR 84.7 70.3 62% 89 29.78 0.0
13 10:15 SW 10 10.00 Fair CLR 83.8 70 63% 88 29.78 0.0
13 09:55 S 9 10.00 Fair CLR 81 69.3 68% 84 29.78 0.0
13 09:35 S 9 10.00 Fair CLR 79.7 68.5 69% 82 29.78 0.0
13 09:15 SW 9 10.00 Fair CLR 79.5 68.4 69% 82 29.78 0.0
13 08:55 SW 12 10.00 Fair CLR 79.9 68.2 68% 82 29.78 0.0
13 08:35 SW 10 10.00 Fair CLR 78.6 67.8 70% 81 29.78 0.0
13 08:15 S 10 10.00 Fair CLR 78.1 67.6 70% 80 29.78 0.0
13 07:55 S 7 10.00 Fair CLR 76.1 66.9 73% 78 29.78 0.0
13 07:35 S 6 10.00 Fair CLR 74.1 66.2 76% 29.78 0.0
13 07:15 S 8 10.00 Fair CLR 72.5 65.3 78% 29.78 0.0
13 06:55 S 8 10.00 Fair CLR 72.5 65.3 77.9 71.2 78% 29.78 0.0
13 06:35 S 6 10.00 Fair CLR 72.1 64.8 78% 29.78 0.0
13 06:15 S 6 10.00 Fair CLR 71.6 64.6 79% 29.78 0.0
13 05:55 S 6 10.00 Fair CLR 71.6 64.4 78% 29.78 0.0
13 05:35 S 5 10.00 Fair CLR 71.8 64.2 77% 29.78 0.0
13 05:15 S 6 10.00 Fair CLR 72.5 64 75% 29.78 0.0
13 04:55 S 7 10.00 Fair CLR 73.4 63.9 72% 29.78 0.0
13 04:35 S 7 10.00 Fair CLR 73 63.9 73% 29.78 0.0
13 04:15 S 7 10.00 Fair CLR 73.8 63.7 71% 29.78 0.0
13 03:55 S 5 10.00 Fair CLR 73.9 63.7 70% 29.78 0.0
13 03:35 S 5 10.00 Fair CLR 74.5 63.5 69% 29.78 0.0
13 03:15 SW 5 10.00 Fair CLR 75.6 63.5 66% 77 29.78 0.0
13 02:55 SW 8 10.00 Fair CLR 75.9 63.7 66% 78 29.78 0.0
13 02:35 SW 8 10.00 Fair CLR 76.3 63.9 66% 78 29.78 0.0
13 02:15 SW 10 10.00 Fair CLR 76.6 64.2 66% 78 29.78 0.0
13 01:55 SW 12 10.00 Fair CLR 77.2 64.6 65% 79 29.78 0.0
13 01:35 S 13 G 17 10.00 Fair CLR 77.4 64.9 66% 79 29.78 0.0
13 01:15 S 10 G 18 10.00 Fair CLR 77.4 65.3 66% 79 29.79 0.0
13 00:55 S 10 G 16 10.00 Fair CLR 77.9 65.5 91 77.9 66% 80 29.8 0.0
13 00:35 S 12 G 18 10.00 Fair CLR 78.1 65.7 66% 80 29.8 0.0
13 00:15 S 14 10.00 Fair CLR 79 65.7 64% 81 29.8 0.0
12 23:55 S 10 10.00 Fair CLR 79 66 65% 81 29.8 0.0
12 23:35 S 8 10.00 Fair CLR 79.7 66.2 63% 82 29.8 0.0
12 23:15 S 8 10.00 Fair CLR 79.7 66.6 64% 82 29.8 0.0
12 22:55 S 8 10.00 Fair CLR 79.9 66.7 64% 82 29.8 0.0
12 22:35 SE 8 10.00 Fair CLR 80.6 66.4 62% 83 29.8 0.0
12 22:15 SE 6 10.00 Fair CLR 82 66.2 59% 84 29.78 0.0
12 21:55 S 8 10.00 Fair CLR 83.3 66.4 57% 86 29.77 0.0
12 21:35 S 8 10.00 Fair CLR 84.6 66.2 54% 87 29.76 0.0
12 21:15 S 12 10.00 Fair CLR 85.1 65.8 53% 87 29.74 0.0
12 20:55 S 10 10.00 Fair CLR 86 65.7 51% 88 29.73 0.0
12 20:35 S 12 10.00 Fair CLR 86.9 65.5 49% 89 29.73 0.0
12 20:15 S 12 G 17 10.00 Fair CLR 88 65.5 47% 90 29.73 0.0
12 19:55 S 15 10.00 Fair CLR 88.9 65.5 46% 91 29.74 0.0
12 19:35 S 16 G 21 10.00 Fair CLR 89.8 64.8 44% 92 29.74 0.0
12 19:15 SW 15 G 23 10.00 Fair CLR 90.7 64.2 42% 92 29.75 0.0
12 18:55 S 18 G 24 10.00 Fair CLR 91 64.8 91.6 86.4 42% 93 29.75 0.0
12 18:35 S 20 G 26 10.00 Fair CLR 91.4 64.4 41% 93 29.75 0.0
12 18:15 S 23 10.00 Fair and Breezy CLR 91.4 64.9 42% 93 29.76 0.0
12 17:55 S 23 G 28 10.00 Fair and Breezy CLR 91.4 65.5 42% 94 29.77 0.0
12 17:35 S 18 G 28 10.00 Fair CLR 91.4 65.7 43% 94 29.77 0.0
12 17:15 SW 22 G 26 10.00 Fair and Breezy CLR 91.6 65.8 43% 94 29.77 0.0
12 16:55 SW 23 G 29 10.00 Fair and Breezy CLR 91.4 66.4 44% 94 29.78 0.0
12 16:35 SW 20 G 25 10.00 Fair CLR 91.4 66.2 44% 94 29.78 0.0
12 16:15 SW 21 G 30 10.00 Fair and Breezy CLR 90.9 65.8 44% 93 29.79 0.0
12 15:55 S 20 G 33 10.00 Fair CLR 90.7 65.8 44% 93 29.8 0.0
12 15:35 SW 22 G 30 10.00 Fair and Breezy CLR 90.5 66 44% 93 29.8 0.0
12 15:15 SW 21 G 29 10.00 Fair and Breezy CLR 89.6 65.7 45% 92 29.8 0.0
12 14:55 S 22 G 29 10.00 Fair and Breezy CLR 89.4 65.5 45% 92 29.81 0.0
12 14:35 S 21 G 26 10.00 Fair and Breezy CLR 88.9 65.3 46% 91 29.82 0.0
12 14:15 SW 21 G 30 10.00 Fair and Breezy CLR 88.2 64.2 45% 90 29.83 0.0
12 13:55 SW 18 G 29 10.00 Fair CLR 88 63.9 45% 89 29.84 0.0
12 13:35 S 18 G 29 10.00 Fair CLR 87.3 63.3 45% 88 29.85 0.0
12 13:15 SW 15 G 24 10.00 Fair CLR 87.1 63.9 46% 88 29.85 0.0
12 12:55 SW 23 G 30 10.00 Fair and Breezy CLR 86.2 62.6 86.2 67.6 45% 87 29.86 0.0
12 12:35 S 25 G 31 10.00 Fair and Breezy CLR 86 64.4 49% 87 29.86 0.0
12 12:15 S 22 G 29 10.00 Fair and Breezy CLR 85.1 63.9 49% 86 29.86 0.0
12 11:55 SW 21 G 28 10.00 Fair and Breezy CLR 84.6 63.3 49% 86 29.86 0.0
12 11:35 SW 21 G 26 10.00 Fair and Breezy CLR 84 63.7 50% 85 29.87 0.0
12 11:15 S 20 G 24 10.00 Fair CLR 82.9 64.6 54% 85 29.88 0.0
12 10:55 SW 20 G 26 10.00 Fair CLR 81.9 64.2 55% 83 29.89 0.0
12 10:35 S 16 G 23 10.00 Fair CLR 81.5 65.7 59% 84 29.89 0.0
12 10:15 S 16 G 21 10.00 Fair CLR 80.4 64.8 59% 82 29.9 0.0
12 09:55 SW 17 10.00 Fair CLR 79.9 64.8 60% 82 29.9 0.0
12 09:35 SW 17 G 22 10.00 Fair CLR 78.6 64 61% 80 29.91 0.0
12 09:15 S 12 G 17 10.00 Fair CLR 77.5 63.1 61% 79 29.91 0.0
12 08:55 SW 13 10.00 Fair CLR 76.5 62.1 61% 78 29.91 0.0
12 08:35 SW 12 10.00 Fair CLR 75.4 61 61% 78 29.92 0.0
12 08:15 SW 9 10.00 Fair CLR 73.6 60.1 63% 29.93 0.0
12 07:55 SW 9 10.00 Fair CLR 71.6 59.5 66% 29.92 0.0
12 07:35 S 9 10.00 Fair CLR 69.8 59.4 70% 29.92 0.0
12 07:15 S 9 10.00 Fair CLR 68.7 59.2 72% 29.93 0.0
12 06:55 S 8 10.00 Fair CLR 67.6 59 73.4 66.2 74% 29.93 0.0
12 06:35 S 7 10.00 Fair CLR 67.1 59 75% 29.92 0.0
12 06:15 S 6 10.00 Fair CLR 66.2 58.8 77% 29.92 0.0
12 05:55 S 6 10.00 Fair CLR 66.2 58.6 77% 29.93 0.0
12 05:35 S 5 10.00 Fair CLR 66.4 58.6 76% 29.92 0.0
12 05:15 S 5 10.00 Fair CLR 67.1 59 75% 29.92 0.0
12 04:55 S 5 10.00 Fair CLR 68.2 59 73% 29.92 0.0
12 04:35 S 7 10.00 Fair CLR 68.4 59 72% 29.91 0.0
12 04:15 S 5 10.00 Fair CLR 68.2 59 73% 29.92 0.0
12 03:55 S 5 10.00 Fair CLR 68.9 59 71% 29.92 0.0
12 03:35 S 5 10.00 Fair CLR 68.9 59.2 71% 29.92 0.0
12 03:15 S 5 10.00 Fair CLR 68.5 59.4 73% 29.93 0.0
12 02:55 S 6 10.00 Fair CLR 69.4 59.5 71% 29.93 0.0
12 02:35 S 6 10.00 Fair CLR 70.2 59.9 70% 29.93 0.0
Date Time (cdt) Wind (mph) Vis. (mi.) Weather Sky Cond. Air Dwpt Max. Min. Relative Humidity Wind Chill (°F) Heat Index (°F) altimeter (in) sea level (mb) 1 hr 3 hr 6 hr
6 hour
Temperature (ºF) Pressure Precipitation (in)